Weather History for PHTO - June, 2014

Change the Weather History Date:

Tuesday, June 10, 2014

  Actual Average Record
Temperature  
Mean Temperature 75 °F 75 °F  
Max Temperature 81 °F 82 °F 87 °F (1986)
Min Temperature 68 °F 68 °F 64 °F (1974)
Degree Days  
Heating Degree Days 0 0  
Month to date heating degree days 0 0  
Since 1 June heating degree days 0 0  
Since 1 July heating degree days 0 0  
Cooling Degree Days 10 10  
Month to date cooling degree days 92 100  
Year to date cooling degree days 1348 1168  
Since 1 June cooling degree days 92 100  
Growing Degree Days 24 (Base 50)    
Moisture  
Dew Point 70 °F    
Average Humidity 87    
Maximum Humidity 100    
Minimum Humidity 74    
Precipitation  
Precipitation 0.29 in 0.23 in 1.17 in (2002)
Month to date precipitation 3.26 2.15  
Year to date precipitation 51.00 54.06  
Snow  
Snow 0.00 in - - ()
Month to date snowfall 0.0  
Since 1 June snowfall 0.0  
Since 1 July snowfall 0.0  
Snow Depth 0.00 in    
Sea Level Pressure  
Sea Level Pressure 30.04 in    
Wind  
Wind Speed 6 mph (SSE)    
Max Wind Speed 14 mph    
Max Gust Speed 15 mph    
Visibility 9 miles    
Events Rain    
T = Trace of Precipitation, MM = Missing Value Source: NWS Daily Summary

Daily Weather History Graph

Daily Weather History Graph

Search for Another Location

Airport or City:

Trip Planner

Search our weather history database for the weather conditions in past years. The results will help you decide how hot, cold, wet, or windy it might be!

Date:

Astronomy

Jun. 10, 2014 Rise Set
Actual Time 5:40 AM HST 6:58 PM HST
Civil Twilight 5:16 AM HST 7:23 PM HST
Nautical Twilight 4:47 AM HST 7:52 PM HST
Astronomical Twilight 4:17 AM HST 8:22 PM HST
Moon 4:51 PM HST (6/10) 3:34 AM HST (6/10)
Length of Visible Light 14h 06m
Length of Day
13h 18m
Waxing Gibbous, 93% of the Moon is Illuminated
Jun 10
Waxing Gibbous
Jun 12
Full
Jun 19
Last Quarter
Jun 26
New
Jul 5
First Quarter

Hourly Weather History & Observations

Time (HST) Temp. Heat Index Dew Point Humidity Pressure Visibility Wind Dir Wind Speed Gust Speed Precip Events Conditions
12:09 AM 69.1 °F - 69.1 °F 100% 30.05 in 10.0 mi West 10.4 mph - 0.02 in Rain Light Rain
12:43 AM 69.1 °F - 69.1 °F 100% 30.04 in 7.0 mi West 5.8 mph - 0.02 in Rain Light Rain
12:53 AM 70.0 °F - 70.0 °F 100% 30.04 in 9.0 mi WSW 4.6 mph - 0.03 in Rain Light Rain
1:35 AM 68.0 °F - 68.0 °F 100% 30.03 in 2.5 mi WSW 8.1 mph - 0.03 in Rain Rain
1:43 AM 68.0 °F - 68.0 °F 100% 30.02 in 5.0 mi WSW 9.2 mph - 0.06 in Rain Light Rain
1:53 AM 68.0 °F - 68.0 °F 100% 30.02 in 8.0 mi WSW 6.9 mph - 0.06 in Rain Light Rain
2:53 AM 69.1 °F - 69.1 °F 100% 30.01 in 10.0 mi SW 4.6 mph - 0.05 in   Overcast
3:53 AM 69.1 °F - 69.1 °F 100% 30.01 in 4.0 mi SSW 3.5 mph - 0.04 in Rain Light Rain
4:14 AM 69.1 °F - 69.1 °F 100% 30.02 in 6.0 mi WSW 5.8 mph - 0.02 in Rain Light Rain
4:29 AM 69.1 °F - 69.1 °F 100% 30.02 in 7.0 mi Calm Calm - 0.02 in Rain Light Rain
4:53 AM 69.1 °F - 69.1 °F 100% 30.02 in 4.0 mi SSW 3.5 mph - 0.06 in Rain Light Rain
5:22 AM 69.1 °F - 69.1 °F 100% 30.03 in 8.0 mi South 6.9 mph - 0.01 in   Overcast
5:32 AM 69.1 °F - 69.1 °F 100% 30.03 in 10.0 mi South 5.8 mph - 0.01 in   Overcast
5:53 AM 70.0 °F - 70.0 °F 100% 30.04 in 3.0 mi SW 3.5 mph - 0.02 in Rain Light Rain
6:00 AM 70.0 °F - 70.0 °F 100% 30.04 in 2.5 mi WSW 3.5 mph - 0.01 in Rain Light Rain
6:15 AM 70.0 °F - 70.0 °F 100% 30.04 in 2.5 mi West 6.9 mph - 0.03 in Rain Light Rain
6:30 AM 70.0 °F - 70.0 °F 100% 30.05 in 10.0 mi West 6.9 mph - 0.03 in Rain Light Rain
6:53 AM 71.1 °F - 71.1 °F 100% 30.05 in 10.0 mi West 8.1 mph - 0.03 in Rain Light Rain
7:36 AM 72.0 °F - 71.1 °F 97% 30.05 in 10.0 mi SW 3.5 mph - 0.01 in   Overcast
7:53 AM 73.0 °F - 71.1 °F 93% 30.06 in 10.0 mi West 3.5 mph - 0.01 in Rain Light Rain
8:53 AM 73.9 °F - 72.0 °F 93% 30.06 in 10.0 mi West 4.6 mph - 0.00 in Rain Light Rain
9:53 AM 75.0 °F - 73.0 °F 94% 30.07 in 10.0 mi Calm Calm - 0.00 in   Overcast
10:00 AM 75.0 °F - 73.0 °F 94% 30.07 in 10.0 mi Calm Calm - N/A   Overcast
10:51 AM 78.8 °F - 71.6 °F 78% 30.07 in 10.0 mi SE 8.1 mph - N/A   Overcast
10:53 AM 79.0 °F - 72.0 °F 79% 30.06 in 10.0 mi East 6.9 mph - N/A   Overcast
11:12 AM 79.0 °F - 71.1 °F 77% 30.07 in 10.0 mi East 6.9 mph - N/A   Overcast
11:53 AM 80.1 °F 83.6 °F 71.1 °F 74% 30.06 in 10.0 mi ENE 8.1 mph - N/A   Overcast
12:53 PM 79.0 °F - 71.1 °F 77% 30.05 in 10.0 mi East 9.2 mph - N/A   Overcast
1:37 PM 79.0 °F - 71.1 °F 77% 30.04 in 10.0 mi East 6.9 mph - N/A   Overcast
1:53 PM 79.0 °F - 71.1 °F 77% 30.03 in 10.0 mi ESE 6.9 mph - N/A   Overcast
2:09 PM 80.1 °F 83.2 °F 70.0 °F 71% 30.03 in 10.0 mi Variable 6.9 mph - N/A   Overcast
2:20 PM 79.0 °F - 71.1 °F 77% 30.03 in 10.0 mi East 11.5 mph - N/A   Overcast
2:31 PM 80.1 °F 83.6 °F 71.1 °F 74% 30.02 in 10.0 mi East 9.2 mph - N/A   Overcast
2:43 PM 79.0 °F - 69.1 °F 72% 30.03 in 10.0 mi East 10.4 mph - N/A   Overcast
2:53 PM 80.1 °F 83.6 °F 71.1 °F 74% 30.02 in 10.0 mi ENE 9.2 mph - N/A   Overcast
3:00 PM 79.0 °F - 71.1 °F 77% 30.02 in 10.0 mi East 9.2 mph - N/A   Overcast
3:08 PM 79.0 °F - 71.1 °F 77% 30.02 in 10.0 mi ESE 10.4 mph - N/A   Overcast
3:20 PM 79.0 °F - 70.0 °F 74% 30.02 in 10.0 mi ENE 9.2 mph - N/A   Overcast
3:35 PM 79.0 °F - 70.0 °F 74% 30.02 in 10.0 mi East 8.1 mph - N/A   Overcast
3:53 PM 79.0 °F - 70.0 °F 74% 30.02 in 10.0 mi ENE 9.2 mph - N/A   Overcast
4:13 PM 79.0 °F - 70.0 °F 74% 30.02 in 10.0 mi East 9.2 mph - N/A   Overcast
4:37 PM 77.0 °F - 71.1 °F 82% 30.02 in 10.0 mi ESE 6.9 mph - N/A   Overcast
4:53 PM 78.1 °F - 69.1 °F 74% 30.01 in 10.0 mi ESE 9.2 mph - N/A   Mostly Cloudy
5:49 PM 77.0 °F - 71.6 °F 83% 30.02 in 10.0 mi East 9.2 mph - N/A   Mostly Cloudy
5:53 PM 77.0 °F - 70.0 °F 79% 30.02 in 10.0 mi East 10.4 mph - N/A   Mostly Cloudy
6:53 PM 73.9 °F - 70.0 °F 87% 30.03 in 10.0 mi ESE 4.6 mph - N/A   Scattered Clouds
7:53 PM 73.9 °F - 71.1 °F 91% 30.04 in 10.0 mi Calm Calm - N/A   Overcast
8:53 PM 73.9 °F - 71.1 °F 91% 30.06 in 10.0 mi Calm Calm - N/A   Mostly Cloudy
9:53 PM 73.0 °F - 71.1 °F 93% 30.08 in 10.0 mi Calm Calm - N/A   Overcast
10:53 PM 72.0 °F - 71.1 °F 97% 30.08 in 10.0 mi SW 4.6 mph - N/A   Scattered Clouds
11:53 PM 72.0 °F - 70.0 °F 93% 30.06 in 10.0 mi SW 4.6 mph - 0.00 in Rain Light Rain